Wind_Speed
12 12 13 14 15 16 17 17 18 19 21 22 23 23 24 24 24 24 23 21 19 14 7 1 4 5 4 6 6 5 7 8 8 12 11 6 7 8 8 10 10 12 11 10 11 5 3 7 8 12 7 3 4 2 1 2 2 5 3 4 2 3 3 4 6 7 4 3 5 2 4 7 4 3 3 4 8 5 5 5 3 5 6 5 8 11 11 9
11 12 12 13 13 15 16 16 17 18 19 20 22 23 23 24 24 24 22 20 19 16 9 3 3 7 6 6 3 3 5 5 7 11 10 6 8 8 9 10 9 10 10 9 11 8 5 6 7 9 6 2 3 2 2 2 3 4 3 4 1 5 3 4 6 6 3 3 4 2 5 6 6 7 5 3 1 2 6 4 4 5 4 4 7 9 8 9
11 12 12 13 13 14 14 15 16 17 18 19 21 22 23 23 24 23 22 20 18 16 11 5 2 8 7 6 2 5 6 4 4 5 6 7 7 8 9 9 7 8 9 8 8 8 4 4 4 4 4 3 2 2 3 3 1 2 4 3 4 6 4 4 5 7 5 5 5 3 4 3 3 6 4 5 6 4 4 5 2 3 5 4 4 6 8 8
11 12 12 13 13 13 14 15 15 16 17 18 20 21 22 22 24 23 22 21 17 16 12 6 1 6 9 7 2 4 6 3 1 1 4 5 6 7 8 9 8 9 9 8 7 7 5 3 3 4 4 3 4 3 3 3 1 1 3 3 5 4 3 5 6 6 5 5 6 4 4 3 3 3 3 8 7 4 7 9 8 11 13 9 6 7 8 9
11 12 13 13 13 14 14 14 15 16 16 17 19 20 22 22 23 23 22 20 16 14 13 7 3 4 10 8 4 4 6 3 1 1 3 3 5 7 8 9 9 8 9 9 9 8 7 5 5 6 4 2 5 4 2 4 1 1 1 2 5 5 3 5 5 4 3 3 3 5 5 4 3 1 4 11 8 5 6 8 9 11 14 12 10 10 9 9
11 12 13 13 14 14 15 15 15 16 16 17 18 19 21 22 22 23 22 20 15 13 12 7 3 1 8 9 5 3 4 1 2 2 2 2 5 6 6 9 11 9 8 9 12 11 9 8 7 5 4 3 3 3 2 5 2 1 3 1 2 4 3 3 3 4 5 6 4 5 4 4 5 1 4 9 7 4 4 4 8 9 12 14 12 11 9 8
11 12 13 14 14 15 15 16 16 16 17 18 18 19 21 22 22 23 23 20 14 11 11 6 2 0 5 7 4 3 3 2 3 2 2 1 3 6 6 7 10 8 6 9 13 9 6 8 6 3 3 3 2 2 2 5 4 3 2 2 1 2 2 3 3 4 6 6 6 5 5 5 6 3 2 5 4 3 2 7 12 12 14 14 11 9 8 9
10 11 12 13 14 15 16 16 17 17 18 18 19 19 20 22 22 24 24 19 13 10 10 4 1 4 5 5 2 3 2 3 3 2 3 2 3 5 5 6 8 7 6 11 11 4 4 7 3 2 3 2 0 2 4 6 5 3 2 2 1 2 3 4 2 2 5 4 1 6 4 3 6 4 4 6 3 2 3 9 12 11 11 10 8 8 8 8
10 11 11 12 13 14 15 16 17 17 18 19 19 20 20 22 22 24 25 18 11 10 9 4 3 6 6 4 5 2 4 2 2 3 3 3 4 5 5 5 7 7 8 11 10 6 4 2 1 2 2 1 1 2 4 5 3 2 1 2 1 3 3 3 3 4 6 3 1 4 1 3 4 3 3 6 5 4 6 8 8 9 8 8 7 8 8 8
12 11 11 12 12 14 15 16 17 17 18 19 20 20 21 22 23 25 25 16 10 9 8 3 4 8 5 3 5 0 3 0 1 3 3 3 3 3 4 5 7 7 7 7 9 8 4 4 3 3 4 2 1 2 2 1 1 3 2 3 4 4 3 2 4 5 4 2 2 4 1 3 3 1 4 6 6 6 8 8 6 7 8 8 6 7 9 9
14 13 13 13 13 14 15 16 17 18 19 19 20 21 21 22 23 25 24 14 8 9 5 1 3 7 6 3 5 3 3 1 1 1 1 2 3 3 3 5 6 7 6 7 7 8 6 7 6 4 2 0 0 2 1 1 0 1 2 5 5 5 4 1 2 3 3 1 3 5 1 3 2 2 6 7 8 7 9 9 6 7 7 7 7 6 7 9
14 14 14 14 14 15 15 16 17 18 19 20 21 21 21 22 23 25 22 11 8 8 4 2 4 7 4 3 3 5 3 2 1 0 0 1 2 3 4 5 6 6 5 5 5 6 7 6 7 4 0 1 0 2 1 1 2 1 4 4 8 8 5 3 1 2 3 2 4 5 1 3 5 6 5 7 10 7 8 9 7 7 6 6 7 5 6 8
14 15 15 15 15 16 16 17 18 19 19 20 21 21 22 22 23 25 18 7 7 7 3 3 7 8 4 1 3 4 3 3 3 1 2 2 2 2 4 4 4 6 5 5 6 6 6 5 6 4 2 4 0 2 1 3 3 1 4 3 5 8 5 3 3 1 2 3 3 2 4 6 8 9 3 7 11 9 8 9 8 8 6 6 6 5 6 7
13 14 14 15 15 16 16 17 18 19 20 20 21 22 22 23 25 23 12 5 7 7 3 4 8 7 3 2 3 4 4 4 4 1 2 2 1 0 3 4 3 5 6 7 7 6 5 4 5 4 1 3 0 1 3 6 4 1 2 2 3 4 4 5 2 1 3 1 2 4 4 9 9 8 5 8 11 12 12 11 9 8 7 6 6 7 6 7
14 13 14 14 15 16 16 17 18 19 20 20 21 22 23 25 25 19 8 7 8 7 3 5 8 6 1 3 3 4 6 5 4 3 1 2 1 1 2 3 3 5 6 7 7 6 4 3 4 3 1 1 4 3 3 4 4 3 1 3 3 1 5 8 4 4 3 1 2 5 4 9 10 7 7 9 9 12 12 10 10 9 8 8 7 7 6 7
17 15 14 14 14 15 16 17 18 19 21 21 22 22 23 25 24 14 7 7 8 6 3 5 6 5 1 2 2 3 6 6 5 4 3 2 1 1 2 3 4 5 5 5 6 4 3 4 4 2 0 2 5 4 3 4 4 4 1 3 3 1 4 7 4 1 2 0 1 3 4 7 7 3 4 8 10 11 10 10 11 10 9 9 7 7 6 6
19 17 16 15 15 15 16 17 18 19 21 21 22 23 23 23 19 10 6 6 5 2 4 3 4 3 0 1 1 3 5 6 6 4 4 3 2 2 1 3 4 4 5 4 3 1 3 4 2 1 2 3 2 4 4 4 4 4 2 1 4 3 2 5 5 3 2 2 4 4 6 11 10 2 4 8 10 11 11 12 12 10 9 8 7 7 7 7
20 19 18 16 15 16 16 16 18 19 20 21 21 23 23 19 13 7 4 3 2 1 3 1 2 2 3 2 2 2 2 4 5 4 5 4 2 2 1 2 3 4 5 4 2 2 2 3 2 1 3 4 3 5 1 4 3 3 3 2 4 3 4 5 6 3 1 2 5 3 6 15 16 7 6 9 10 11 13 12 10 9 10 9 8 8 7 8
21 20 19 18 16 16 16 16 17 18 20 21 20 21 18 12 8 4 3 1 0 1 2 3 2 2 3 3 2 2 2 2 3 4 4 4 2 1 3 3 4 3 3 1 1 3 1 3 4 2 3 4 2 4 6 7 6 5 5 4 4 5 6 7 6 4 1 3 7 7 9 14 17 12 8 9 10 11 12 10 7 8 9 9 9 8 8 8
22 21 20 19 17 16 16 16 17 18 19 20 21 18 9 5 5 4 3 3 4 3 2 5 4 2 2 1 1 3 1 2 3 4 4 4 2 2 2 3 5 3 2 2 2 2 4 3 2 5 6 7 7 6 6 5 5 3 2 3 5 5 7 8 4 3 2 2 8 8 9 13 16 16 11 8 9 10 12 11 10 9 10 10 11 10 10 9
22 21 21 19 17 16 15 16 16 16 17 18 17 11 2 1 2 3 5 7 8 5 4 6 3 3 3 1 2 3 1 1 3 3 6 4 2 3 1 3 3 0 1 1 1 3 5 2 5 8 9 7 6 6 5 4 4 2 3 4 5 5 8 9 4 4 0 2 6 5 7 13 14 16 12 6 9 13 15 15 15 14 12 11 12 12 10 7
21 20 20 19 18 16 14 15 15 15 15 14 11 3 3 2 2 1 1 5 9 3 4 4 2 4 4 2 3 3 3 1 4 4 7 4 2 3 2 3 4 4 2 1 1 4 4 3 9 8 5 4 4 5 6 3 3 2 2 2 4 4 4 8 4 4 2 2 6 7 7 12 13 16 15 9 12 13 14 17 16 14 14 13 13 12 11 9
20 19 20 19 18 15 13 13 14 14 12 9 6 2 3 1 3 2 1 2 8 3 1 2 3 4 3 2 5 6 4 4 4 5 8 7 2 3 3 4 4 2 1 3 4 0 2 6 7 3 7 8 4 3 5 2 1 3 3 2 5 4 1 5 4 5 3 2 6 9 11 12 10 15 18 11 10 9 10 13 13 11 13 14 13 11 12 13
19 19 19 18 16 13 12 13 13 10 8 5 4 1 2 2 3 2 0 1 5 5 2 4 3 4 3 2 6 9 3 4 4 3 7 9 3 2 4 5 4 2 3 5 7 5 6 6 3 6 6 7 4 1 4 3 3 4 5 6 6 6 5 6 3 5 5 3 4 8 11 9 7 12 15 5 2 7 6 8 10 11 11 9 9 10 11 12
18 18 16 16 15 12 10 11 9 5 5 4 1 1 2 3 3 1 1 2 4 6 2 3 1 3 5 4 6 7 2 2 4 3 5 7 5 3 2 3 3 4 5 4 6 5 7 4 4 6 3 4 5 3 4 7 3 4 5 9 10 8 8 6 5 6 5 4 4 6 7 7 2 5 12 5 3 8 5 7 13 12 10 8 9 11 10 9
18 15 11 13 14 11 8 5 4 5 6 3 0 1 1 4 3 1 2 4 3 5 1 2 1 4 6 4 3 4 2 3 3 1 3 3 3 3 2 1 0 3 5 5 3 3 3 1 3 6 5 4 4 5 6 7 4 3 4 7 7 5 4 4 4 4 2 3 2 4 2 9 3 3 10 8 6 10 6 9 13 11 9 10 11 10 10 10
16 11 8 13 14 10 6 3 4 5 3 2 0 2 3 3 3 1 2 3 4 4 2 1 1 4 5 2 2 4 2 3 1 3 2 2 0 2 2 3 1 2 4 4 1 3 3 2 4 4 5 5 4 5 6 9 7 3 4 5 5 2 2 2 2 0 3 3 3 3 4 9 9 5 8 5 5 11 11 12 14 10 11 13 12 10 10 11
15 10 8 13 12 7 5 5 5 4 1 2 2 2 2 3 3 1 3 1 4 1 2 1 1 3 1 0 2 3 2 2 3 1 2 4 1 3 0 6 6 4 3 5 4 5 3 5 5 5 4 4 6 6 8 11 5 5 4 5 5 3 2 2 2 2 2 3 5 4 7 5 10 5 2 4 3 11 14 16 15 12 14 14 11 10 10 10
12 8 9 11 9 5 5 6 5 3 3 3 3 2 2 3 1 4 4 3 4 1 1 0 2 1 2 2 1 1 2 2 1 3 3 3 1 4 2 5 6 4 1 3 5 5 0 4 7 8 5 6 5 3 7 10 5 3 5 5 4 4 3 4 2 1 2 3 9 6 8 4 9 4 2 2 3 9 12 14 13 11 12 12 10 11 10 9
10 7 8 10 7 4 4 5 5 5 5 4 2 2 3 2 2 3 2 5 3 0 1 1 2 1 4 4 2 2 0 2 0 2 3 1 3 5 2 2 5 4 1 4 3 4 3 2 2 4 4 6 4 2 1 4 3 3 6 4 5 4 4 4 2 3 3 5 9 7 12 8 7 3 5 3 5 7 8 9 8 8 9 10 10 11 11 9
9 9 10 9 7 4 3 3 2 2 3 3 2 3 2 2 3 4 6 5 3 1 1 1 1 2 5 5 2 1 1 2 1 2 1 1 2 4 2 1 3 3 3 5 4 5 5 1 2 2 2 4 6 5 2 3 3 4 4 4 4 4 3 4 4 4 1 6 6 3 8 9 8 6 4 5 5 5 7 8 9 9 8 9 10 10 10 9
9 10 10 9 8 6 4 3 1 3 2 2 3 3 3 0 1 4 5 4 2 3 3 2 1 2 4 2 1 3 3 2 2 4 4 3 2 3 3 4 4 1 3 4 3 5 3 4 3 3 1 4 5 4 2 5 4 4 4 4 3 4 4 3 3 0 3 7 3 2 3 5 12 10 8 10 11 9 8 8 9 9 6 8 9 9 8 8
11 12 10 9 10 9 7 6 5 4 1 4 3 5 5 3 5 6 5 3 2 2 1 2 1 3 5 3 3 3 3 3 3 3 3 3 3 5 5 4 5 2 4 3 1 3 4 4 1 0 3 3 7 5 2 2 1 4 4 4 3 1 1 4 4 2 5 6 3 4 3 5 9 8 10 15 13 10 6 6 9 8 6 9 10 9 8 8
13 12 12 11 11 11 9 7 6 3 2 4 4 5 3 6 6 5 7 6 3 2 2 3 3 2 3 2 4 4 3 4 4 5 3 3 2 5 6 5 4 2 2 2 1 2 3 6 2 5 2 3 8 6 4 5 3 3 4 4 4 5 3 4 4 4 6 7 4 3 3 4 5 2 6 9 7 4 3 5 6 5 6 6 7 8 8 9
11 13 16 14 13 14 11 8 6 5 4 5 5 3 7 8 3 3 6 5 2 1 2 2 4 3 2 3 4 3 4 4 2 5 4 4 4 5 4 6 7 5 4 3 2 2 3 7 5 2 1 3 5 2 3 6 3 1 2 4 2 4 5 3 3 4 1 6 6 3 4 6 4 3 5 2 5 4 3 5 3 3 3 5 6 8 9 9
11 13 14 13 15 16 14 10 7 8 7 5 4 7 9 7 4 4 4 4 4 4 3 2 3 3 4 3 3 3 2 2 1 3 3 3 3 5 4 5 8 10 8 5 3 2 1 6 4 2 2 1 1 3 0 2 3 2 2 3 4 4 5 2 4 2 4 3 6 2 6 9 5 4 4 1 4 6 5 4 2 3 3 6 7 8 9 9
12 13 11 12 16 17 17 13 8 10 7 5 6 10 7 5 6 6 4 3 3 5 6 2 3 5 5 3 3 4 2 1 1 3 3 3 3 5 6 5 6 14 13 6 3 4 3 5 3 2 1 1 1 2 2 2 3 5 3 5 4 2 4 3 1 3 3 3 6 3 9 14 10 6 2 1 5 9 8 5 3 3 5 7 8 8 9 9
14 10 8 15 21 20 19 15 12 10 4 4 10 11 4 5 6 5 5 4 2 4 5 5 5 5 6 5 4 4 5 4 3 3 3 3 4 5 7 5 5 10 11 5 2 3 2 3 4 1 3 3 3 1 1 3 3 5 4 3 2 2 1 2 2 2 1 3 7 6 8 14 12 5 2 3 8 10 9 6 5 7 9 10 9 9 9 8
14 6 5 14 23 25 22 17 13 8 2 6 12 9 4 5 5 5 6 5 3 3 4 6 5 3 4 6 4 4 6 6 6 4 4 4 5 4 6 5 4 4 3 5 5 2 3 3 4 1 2 2 3 1 4 2 2 3 0 1 1 2 3 3 3 3 3 3 7 7 9 13 9 5 5 8 9 10 9 8 8 11 12 11 9 9 10 10
10 3 3 9 21 29 27 17 10 5 5 9 11 7 4 3 5 8 9 7 4 3 5 5 5 5 4 5 4 4 5 5 6 5 4 4 4 5 6 5 5 3 2 3 3 2 3 3 4 2 3 1 3 4 7 9 5 3 2 2 2 1 1 1 2 2 3 4 5 4 9 15 7 6 7 8 8 10 11 9 10 12 12 11 10 10 10 10
7 4 3 12 25 31 25 12 5 5 6 9 10 7 4 4 5 8 9 10 7 3 3 5 7 7 5 5 4 4 5 4 6 5 4 5 5 5 7 8 8 7 3 4 2 4 3 3 3 2 1 4 6 4 4 7 6 6 6 7 7 5 3 2 5 3 3 4 5 2 7 18 9 5 5 6 6 9 9 9 9 11 12 11 10 11 12 10
5 5 4 18 33 33 21 7 6 5 5 8 7 5 6 6 5 6 7 8 8 5 2 4 8 8 6 6 5 6 6 4 6 7 5 7 10 8 7 8 10 10 7 4 3 3 3 3 3 3 4 6 6 3 1 2 1 2 4 5 6 6 6 6 8 4 2 4 4 3 6 17 7 4 3 5 5 6 5 8 9 10 11 11 11 11 10 9
6 4 5 21 38 32 13 5 6 5 7 7 5 5 6 5 4 6 8 8 8 7 6 7 8 9 8 6 6 7 7 6 7 8 5 6 11 10 7 10 11 9 6 3 2 2 2 2 3 4 3 2 4 4 1 2 3 2 5 4 6 7 8 7 6 2 2 5 3 3 10 16 4 3 2 3 3 4 4 8 10 8 7 8 11 11 9 9
5 3 3 19 38 28 10 7 8 8 10 8 8 10 8 6 8 9 10 13 10 8 10 11 8 8 8 8 9 9 8 7 8 8 9 9 7 5 8 12 12 10 6 5 5 5 3 3 3 4 5 4 4 3 3 2 1 4 5 5 8 11 7 2 0 1 3 10 9 6 14 17 5 2 2 4 4 5 5 7 8 7 7 8 10 10 9 8
3 3 1 14 29 21 8 7 7 7 11 12 12 12 9 7 10 13 15 15 13 9 8 8 6 8 8 7 8 9 9 10 10 7 9 9 4 1 5 11 13 11 6 2 4 7 6 4 6 7 8 8 7 6 4 3 3 3 4 6 10 13 12 6 2 4 10 13 10 10 16 19 12 3 0 5 7 6 6 7 6 7 7 8 9 9 9 10
4 3 2 6 11 10 8 6 4 5 9 10 9 9 12 13 11 12 15 15 12 9 6 5 6 9 8 8 9 10 12 14 11 6 6 6 4 3 3 6 10 9 3 2 5 6 4 3 8 12 13 13 14 12 6 6 5 5 7 11 14 15 16 11 6 9 12 7 7 17 20 20 25 17 7 11 13 9 9 9 8 8 8 8 9 10 10 9
5 5 5 6 4 7 9 7 7 7 5 7 6 7 15 20 12 7 11 12 10 10 8 8 8 9 10 12 12 12 13 14 13 13 11 7 3 3 0 3 5 5 2 2 4 5 3 5 13 15 17 18 18 17 8 8 8 11 11 13 15 14 14 13 14 18 14 4 9 24 21 18 30 27 16 18 18 10 10 11 10 10 9 9 9 10 10 10
7 5 6 10 7 8 11 12 13 12 9 8 8 8 12 17 15 11 10 8 8 11 10 9 13 18 19 16 12 10 11 12 14 17 15 8 4 2 0 1 3 4 4 2 3 4 4 9 14 14 17 19 18 18 12 8 9 10 11 14 14 13 16 20 24 24 16 10 19 27 22 22 29 25 19 21 16 10 13 12 10 9 8 9 9 10 11 12
7 3 4 10 9 10 14 17 17 17 17 14 10 11 15 19 21 15 7 5 7 12 14 15 20 24 22 16 11 10 13 15 16 16 13 10 10 7 4 4 3 2 5 5 3 2 4 9 13 11 13 17 17 17 13 10 9 9 16 19 13 14 20 24 24 22 19 21 26 27 26 29 29 22 21 22 14 9 10 7 7 8 9 11 12 13 14 15
9 5 4 6 8 10 10 12 13 14 16 15 12 15 19 22 23 13 7 9 11 11 15 22 24 19 18 17 16 18 22 22 18 15 12 12 11 9 7 7 3 2 4 5 2 2 5 7 7 4 6 14 16 12 8 7 7 10 21 24 15 14 19 20 20 18 17 21 27 26 25 26 26 21 21 20 12 8 8 7 8 9 11 13 14 14 16 16
15 7 6 3 5 9 7 6 10 10 11 13 15 19 19 21 22 14 7 12 17 13 14 22 25 16 12 16 22 26 29 24 19 16 13 13 12 10 8 7 8 7 6 6 4 4 5 4 1 3 5 13 9 2 2 1 3 8 23 28 21 16 17 19 18 16 17 20 23 22 19 19 22 21 17 14 9 9 12 12 10 9 12 15 15 16 17 16
17 6 7 5 6 8 6 5 8 9 9 13 18 20 18 17 18 13 8 10 17 18 13 16 21 15 10 17 26 29 27 22 17 14 8 7 9 8 5 6 10 10 9 7 4 4 6 5 3 4 8 10 1 5 4 6 4 11 21 23 21 18 19 21 19 18 22 20 15 16 18 19 21 18 15 13 10 11 13 12 11 11 12 15 16 17 17 15
Wind_Direction
18 17 14 12 11 12 12 11 11 11 10 9 10 11 13 15 16 16 15 16 16 20 32 40 185 178 166 146 115 67 54 61 62 57 59 29 2 10 4 3 9 9 5 1 10 27 6 9 354 358 33 100 10 335 15 42 72 53 84 83 93 158 161 172 181 197 175 195 228 224 149 137 175 223 169 57 45 69 63 37 9 22 32 58 104 122 133 138
12 12 11 9 7 6 7 8 8 8 8 7 7 7 9 11 11 12 12 13 11 12 20 25 187 187 180 168 161 15 13 19 43 50 41 20 16 15 7 6 8 9 8 11 19 27 20 349 332 1 40 62 347 328 19 32 70 81 113 84 182 196 182 186 179 191 184 184 206 189 152 155 176 174 155 106 120 134 89 37 357 39 39 68 109 124 130 121
8 7 7 7 4 2 1 2 4 3 4 4 3 3 5 7 7 7 8 9 8 6 9 20 197 201 195 193 205 351 339 343 28 35 16 17 27 21 11 5 8 15 16 25 29 31 22 322 322 22 48 56 354 337 22 14 21 128 113 80 231 209 194 216 186 197 221 188 173 181 162 156 182 167 152 145 167 197 161 165 161 173 194 176 164 145 132 122
6 3 4 4 3 0 357 357 357 357 358 358 359 359 360 2 4 3 3 3 3 3 2 11 339 212 205 208 199 341 341 15 23 330 6 19 33 28 17 9 14 16 16 33 37 35 30 8 36 45 52 37 342 13 36 348 350 107 102 138 210 177 166 215 196 207 220 179 166 157 138 144 193 177 152 145 149 240 227 200 188 184 181 177 187 169 153 138
5 1 1 1 0 359 357 354 351 350 350 351 353 353 354 357 360 359 359 358 357 1 359 0 355 224 210 211 208 330 2 51 248 327 19 23 37 28 19 12 13 8 8 29 29 31 33 33 53 40 45 35 348 23 16 319 59 53 4 159 184 140 158 227 208 204 169 133 140 133 146 161 154 143 164 164 174 233 237 214 198 176 168 166 169 168 164 143
2 360 359 357 358 356 355 353 349 347 345 345 347 348 349 350 355 357 355 355 353 357 358 353 357 261 210 208 219 337 32 117 276 12 352 11 38 22 17 5 8 7 358 18 22 30 30 23 47 44 31 44 12 29 322 312 27 50 326 10 214 187 168 205 206 204 146 130 164 169 170 130 118 216 202 190 207 271 286 184 158 149 154 156 156 160 159 142
359 357 356 354 354 352 352 351 348 345 344 343 342 344 346 346 351 353 353 354 350 353 356 353 8 86 190 202 223 17 62 239 304 3 293 340 32 17 16 359 5 3 354 21 23 34 44 28 43 76 45 39 17 5 325 321 23 96 278 327 256 233 190 193 195 189 158 165 195 164 138 138 163 188 175 213 241 335 354 115 126 136 146 151 153 159 156 149
354 353 352 351 349 348 347 346 346 344 342 341 340 341 343 343 346 349 350 351 348 349 351 349 124 129 146 171 171 18 349 265 303 295 283 308 355 5 7 357 3 4 38 44 35 60 72 43 51 116 44 14 105 347 337 344 16 94 241 291 98 252 254 254 242 180 186 198 166 110 118 215 206 171 161 213 223 114 117 112 123 136 142 155 158 158 158 156
348 347 347 347 345 344 343 342 342 341 340 339 338 339 340 340 342 346 347 348 346 341 344 341 193 157 137 125 99 30 280 252 307 286 279 297 327 351 0 10 11 19 58 57 50 72 79 72 174 165 126 196 147 329 336 2 339 194 218 283 274 277 273 253 236 225 214 207 99 117 57 277 215 177 203 207 185 161 133 122 134 140 149 165 162 166 168 169
339 341 342 341 341 341 340 339 339 338 338 337 336 338 338 338 339 341 344 345 338 331 339 334 202 180 172 109 84 54 258 184 308 286 281 295 324 343 4 20 20 31 61 64 59 71 95 158 170 143 132 132 61 335 334 58 219 214 228 257 260 290 292 213 209 226 215 208 195 180 306 284 234 233 246 209 177 164 138 140 156 151 165 172 169 179 174 178
334 335 336 337 338 338 337 337 336 336 335 335 335 335 336 335 336 338 341 340 327 328 329 271 189 189 192 114 110 209 240 146 271 292 285 297 341 359 25 27 26 39 61 72 78 85 107 152 147 122 108 96 308 344 279 223 273 271 308 294 298 328 322 271 196 207 183 197 164 136 79 295 286 271 235 188 165 162 151 162 178 174 184 179 178 184 181 188
330 330 331 333 335 335 337 336 335 334 332 333 332 333 335 332 333 336 337 334 323 327 312 220 181 180 165 87 151 210 211 178 208 87 36 336 5 24 46 32 31 46 55 77 103 103 106 140 125 98 358 142 275 336 218 243 1 5 32 338 315 356 2 330 322 202 168 199 170 127 344 268 219 241 238 157 153 154 159 175 189 191 198 191 187 187 194 196
325 327 327 329 331 333 335 334 333 332 330 331 330 331 332 330 331 333 331 325 330 333 297 210 186 176 139 74 225 196 184 191 187 110 48 2 7 41 41 26 45 60 60 86 111 107 103 134 121 106 138 119 238 285 100 33 19 309 40 42 326 357 352 312 356 47 148 189 180 134 287 256 228 239 226 148 154 149 172 193 194 197 200 197 195 195 204 203
320 321 321 323 327 329 331 331 330 329 328 329 328 328 329 329 328 329 321 292 330 335 266 198 178 169 141 251 230 187 204 206 198 167 34 3 7 146 20 21 61 75 74 86 97 100 99 120 110 89 101 113 260 292 23 8 19 343 9 54 9 352 291 286 325 136 156 221 142 119 261 261 259 252 190 167 166 163 185 199 194 200 199 198 201 199 207 207
312 314 316 318 321 325 327 328 328 327 327 326 327 327 328 328 326 327 309 266 315 325 239 188 178 158 89 284 241 207 226 226 224 243 318 359 22 238 347 26 95 90 84 82 87 99 96 97 95 82 260 18 45 47 9 348 7 33 346 311 343 322 279 300 296 185 189 316 104 138 243 269 276 263 182 170 176 180 193 199 196 201 198 197 205 201 205 212
306 308 310 312 315 320 322 325 327 326 326 325 326 325 326 327 324 323 295 266 309 312 205 177 184 157 104 277 255 224 228 229 231 239 265 318 15 345 9 87 110 99 98 86 86 99 79 70 68 67 161 36 60 74 37 7 344 3 60 253 278 258 299 316 322 239 218 152 153 191 243 273 282 283 174 176 185 193 203 206 203 204 200 199 203 203 201 207
302 303 306 309 309 314 319 323 325 325 325 325 326 325 326 325 319 318 290 273 314 292 171 172 182 157 243 242 230 264 229 216 220 233 259 277 343 352 52 111 101 99 95 85 88 67 36 53 30 334 49 41 65 84 36 351 307 324 14 260 258 241 269 299 306 334 46 167 226 240 245 260 269 250 176 198 194 198 211 214 209 203 202 203 201 205 205 202
299 301 303 306 308 311 318 322 324 327 326 326 328 325 323 320 311 303 269 264 339 97 153 188 118 125 278 239 197 237 194 193 209 231 252 249 292 349 108 119 107 98 59 45 51 23 358 30 49 21 20 359 22 82 104 255 225 250 276 280 291 268 223 247 270 298 57 211 234 233 250 263 270 258 199 206 201 205 218 218 214 206 203 206 203 205 208 203
299 298 299 303 307 310 316 322 325 329 329 329 332 328 322 319 312 281 241 257 12 164 217 231 169 152 242 243 205 170 140 177 209 232 231 224 259 35 103 86 87 98 56 5 335 17 36 36 38 1 318 296 262 148 186 210 185 202 229 217 260 277 259 242 242 252 222 257 254 231 243 263 272 269 232 208 203 213 228 229 221 213 208 208 207 208 207 206
299 298 297 301 306 309 316 322 324 329 333 336 339 339 337 345 345 317 311 305 232 200 220 232 216 223 251 265 165 154 186 242 233 226 202 200 201 106 99 42 39 54 82 187 269 360 76 57 315 254 245 245 234 194 172 170 160 162 183 220 247 250 274 273 252 266 168 211 263 234 234 258 266 269 254 207 199 219 230 233 227 216 213 210 208 209 204 206
299 299 296 299 306 310 313 319 324 327 333 340 343 347 21 115 359 318 319 300 271 237 232 243 228 258 262 196 164 152 135 281 271 225 190 190 135 143 244 26 67 181 274 199 255 357 62 67 259 238 221 220 215 173 130 114 137 150 197 240 273 232 256 278 280 310 105 176 267 242 234 256 259 268 263 184 187 222 219 222 226 216 216 215 208 208 205 206
301 300 298 299 304 310 312 318 324 324 329 339 345 20 119 131 164 212 348 300 290 263 216 252 255 267 262 208 200 151 113 253 286 252 190 165 104 183 245 60 142 206 309 65 65 358 18 260 253 241 188 136 90 118 123 125 149 156 175 206 278 249 267 291 304 342 1 167 270 275 261 260 257 265 263 209 198 225 218 217 223 214 215 217 208 204 199 200
305 303 302 300 303 308 313 318 320 322 329 342 356 72 120 134 164 172 85 282 290 295 183 219 204 230 256 250 199 156 151 203 244 253 185 153 121 190 160 113 156 176 36 165 165 120 296 251 247 204 139 126 82 82 115 102 163 181 179 193 263 271 297 284 303 343 323 234 270 288 278 263 252 259 263 237 211 233 228 225 230 219 220 219 210 204 197 198
307 306 304 302 303 307 314 319 317 317 320 333 359 64 166 175 167 180 329 280 288 292 237 201 186 191 198 203 173 158 160 198 199 235 176 154 145 165 162 152 137 143 229 191 162 186 243 245 157 108 120 143 143 98 142 175 279 247 206 203 242 264 242 238 286 339 323 306 314 318 299 269 229 240 258 270 259 258 239 231 238 230 229 222 207 207 203 201
304 303 305 307 306 306 313 319 320 324 318 313 1 63 164 187 183 164 32 17 297 297 278 211 214 200 182 131 153 168 148 219 218 214 174 162 157 148 177 164 138 198 215 163 151 216 260 252 133 122 108 131 158 224 202 183 243 295 229 209 225 247 253 266 324 353 345 327 344 7 325 278 191 218 256 284 299 262 228 223 239 231 222 214 209 208 202 204
305 310 316 312 308 313 317 319 340 344 326 309 212 329 231 199 193 163 67 45 294 279 265 203 214 176 173 132 156 167 118 276 263 126 133 164 170 138 147 174 95 210 187 143 162 230 261 357 93 136 142 132 168 240 235 172 147 298 243 197 204 222 261 288 343 7 301 264 291 61 320 274 276 186 248 259 259 261 247 235 242 234 220 215 214 207 194 199
307 313 314 305 309 330 332 307 331 328 312 311 228 277 262 198 188 231 25 23 285 241 155 256 313 151 175 186 157 147 182 265 10 72 89 112 278 61 143 204 147 206 184 129 271 251 168 91 59 108 122 136 181 242 229 160 137 244 226 133 130 147 240 236 83 7 247 272 278 161 167 273 281 238 248 267 262 269 269 253 247 231 223 222 214 203 195 196
300 298 298 302 309 332 324 302 311 318 296 304 302 276 248 195 186 60 60 295 274 204 127 268 100 124 161 342 100 123 237 273 111 248 7 69 40 51 161 225 180 192 181 135 231 262 154 163 184 155 127 175 207 223 192 159 162 242 192 113 102 118 169 141 102 266 288 352 291 205 148 264 277 249 292 358 264 263 267 260 254 233 222 223 211 200 197 193
294 294 301 310 313 316 314 306 293 293 309 319 308 267 179 179 184 63 87 235 269 38 77 48 119 100 37 73 54 58 339 345 128 256 352 63 45 65 164 216 153 163 178 131 225 260 146 204 192 154 158 210 217 221 183 167 193 222 128 96 60 66 67 68 65 338 34 328 271 228 156 220 275 232 138 31 246 249 257 258 257 239 224 217 203 199 194 186
280 271 284 302 312 305 305 304 281 276 289 295 275 200 138 133 107 97 194 237 261 284 88 102 183 176 97 116 290 336 218 275 349 1 15 65 7 34 130 181 96 111 351 0 281 266 322 323 173 150 184 196 153 106 158 152 160 119 92 55 20 32 46 48 44 61 51 280 270 231 174 188 277 249 159 186 216 219 238 259 266 247 223 205 199 199 191 182
263 252 271 286 291 288 302 318 332 327 294 254 201 138 105 44 87 155 221 244 260 253 146 192 239 106 121 147 209 205 168 254 237 136 140 141 18 33 89 163 78 67 357 333 299 306 336 334 232 256 176 129 95 80 41 33 75 91 76 49 6 337 12 19 357 45 60 258 271 241 176 186 244 247 188 230 249 226 226 252 262 248 225 203 199 196 187 181
267 250 261 272 265 266 281 276 332 5 347 167 143 93 92 187 207 187 231 288 282 219 176 190 221 148 149 148 216 198 174 219 199 165 165 154 172 192 196 190 164 53 314 258 275 331 308 232 255 314 214 139 107 87 19 357 37 86 90 75 37 334 353 345 310 48 222 246 248 118 134 217 245 247 241 247 256 253 232 231 251 252 227 203 197 190 180 175
271 249 243 255 251 250 262 261 265 305 326 151 130 63 88 201 232 195 203 255 238 219 131 116 100 136 139 132 246 212 171 213 196 167 171 147 179 236 247 220 176 212 257 213 267 329 297 292 327 197 273 176 151 157 206 265 146 145 147 128 129 113 340 280 269 269 269 268 231 128 110 270 271 261 237 235 245 258 249 241 257 258 222 203 194 181 174 175
270 245 235 251 246 239 249 256 252 251 148 137 108 76 131 222 237 192 208 229 236 347 30 92 80 94 134 177 236 201 179 228 177 150 172 135 162 239 242 230 197 173 163 146 201 200 243 293 223 176 247 189 179 187 164 145 143 174 164 137 149 155 183 238 239 249 288 302 270 157 137 249 272 258 216 234 261 281 285 272 269 258 220 191 174 167 171 181
259 237 231 239 229 224 238 246 232 202 161 126 106 147 204 218 210 188 217 224 237 337 15 43 82 102 243 269 267 225 206 237 146 131 174 174 186 210 201 208 196 156 131 167 236 168 201 266 257 222 274 166 184 230 119 118 116 219 137 110 174 184 170 206 241 219 292 318 284 207 206 230 236 229 199 236 300 291 308 305 275 234 189 149 161 176 179 185
233 230 225 223 214 209 219 234 218 187 168 125 144 212 220 213 177 185 200 178 183 157 115 16 82 133 258 279 266 253 218 233 146 138 203 213 214 209 205 222 194 174 170 173 204 172 188 273 288 357 337 116 176 272 124 138 177 165 132 177 217 184 134 149 284 334 70 299 274 261 268 275 307 286 204 144 299 274 287 291 230 204 174 168 188 188 185 189
212 223 221 219 215 204 210 224 200 177 161 125 200 222 216 204 188 185 181 152 158 133 128 202 201 181 222 240 234 223 184 234 187 169 212 228 232 200 202 249 199 185 193 181 208 213 190 268 276 116 199 271 258 243 351 16 124 127 178 215 197 135 97 109 279 342 44 261 270 290 280 283 298 296 257 42 275 259 256 241 206 211 202 201 206 193 190 192
203 214 226 222 214 201 206 212 181 166 137 145 226 239 210 201 203 180 170 152 127 114 139 207 216 188 193 206 237 204 173 198 181 173 204 219 248 192 170 224 209 192 202 174 203 242 152 251 284 105 209 287 2 103 303 348 76 123 193 215 127 148 153 102 161 244 207 244 271 285 289 281 270 253 244 234 231 240 243 210 188 212 211 211 207 193 192 191
196 204 252 224 212 205 204 197 170 159 157 193 226 242 206 207 226 203 184 166 142 140 176 221 218 200 184 181 203 194 185 196 171 179 206 190 237 212 171 208 199 180 201 155 177 219 120 214 274 344 250 293 20 138 196 224 54 75 153 343 49 170 173 160 173 187 177 225 270 295 306 287 260 190 196 218 212 223 228 203 200 214 213 210 201 190 193 193
179 209 271 200 201 201 192 177 161 173 205 211 222 225 187 203 230 226 212 195 190 190 200 213 200 211 214 186 195 192 193 205 178 188 220 193 225 239 209 202 161 136 33 88 160 175 104 211 247 320 336 249 196 205 193 187 175 156 185 208 224 180 141 219 219 163 166 222 253 285 290 278 260 150 189 210 202 217 219 203 207 217 215 209 198 192 195 195
165 234 228 174 184 183 171 162 188 201 213 226 228 221 208 213 215 225 224 207 213 226 178 181 196 206 199 191 207 185 180 208 189 193 231 213 218 239 215 188 155 146 114 78 162 194 165 194 195 171 231 212 219 238 208 193 182 179 194 197 197 185 153 238 253 215 174 225 225 165 271 271 262 139 175 188 191 221 217 198 206 219 215 205 196 197 195 192
180 228 176 171 176 169 157 174 218 199 219 229 226 221 216 222 212 212 217 208 217 236 208 200 210 205 196 194 195 179 181 202 195 200 229 218 213 224 211 179 156 150 146 140 201 196 142 126 168 204 219 219 243 277 235 204 174 200 217 194 185 181 169 203 239 227 174 235 229 113 264 268 262 121 169 191 206 234 207 193 210 220 215 200 193 197 193 191
203 198 135 166 173 166 158 214 216 210 236 229 235 243 223 228 228 206 204 205 210 214 219 227 212 204 217 208 187 192 197 205 201 196 214 230 223 220 192 162 153 146 142 156 188 158 112 123 198 259 293 325 318 320 360 49 64 241 241 189 179 202 198 205 224 182 150 226 198 135 255 262 273 88 226 239 257 261 197 202 220 220 209 196 192 194 192 191
196 169 98 171 177 173 175 211 202 214 228 221 231 235 225 232 231 213 202 202 202 196 209 223 210 204 220 205 201 210 195 204 223 205 208 228 231 211 176 167 167 169 181 198 181 173 189 174 174 247 291 316 324 327 332 329 218 228 236 189 200 220 210 185 64 114 245 239 209 204 253 261 265 83 290 290 278 259 226 217 226 220 204 195 192 192 190 188
169 166 76 179 185 188 203 211 191 205 216 215 226 227 226 242 232 220 214 211 209 197 204 223 201 194 207 188 203 218 197 210 233 219 213 226 242 249 186 184 190 191 194 201 163 169 185 180 173 204 232 241 245 233 214 220 209 219 231 204 210 215 202 198 216 217 243 240 214 219 250 264 267 235 176 275 257 247 249 238 230 227 210 195 192 192 189 188
172 191 171 179 196 210 231 224 188 205 210 205 219 222 220 234 238 221 217 220 220 205 210 237 194 186 201 189 201 221 215 220 229 226 220 213 217 253 194 189 207 206 186 107 150 158 152 192 202 207 215 223 238 239 191 137 158 200 210 207 212 212 203 205 222 229 237 238 226 236 244 265 272 263 251 263 256 243 244 240 228 223 209 196 196 194 191 191
190 209 185 166 188 220 231 230 210 217 202 175 189 209 215 226 237 224 210 213 210 200 218 238 207 194 205 197 202 219 219 221 227 231 231 211 207 280 202 177 225 229 202 145 171 151 117 225 222 217 223 228 239 245 209 156 197 218 212 211 214 209 195 196 218 229 231 233 253 251 247 257 267 267 264 265 263 253 239 232 224 220 206 196 195 188 187 194
196 221 189 172 180 201 212 216 208 208 203 185 197 222 229 230 229 221 208 199 195 195 208 230 220 216 214 200 201 220 221 224 231 231 231 218 200 224 257 219 227 208 175 168 217 164 147 235 231 221 233 238 243 248 233 207 225 233 235 231 215 198 191 202 221 228 223 224 247 256 259 257 261 267 268 264 264 257 246 232 214 211 193 183 187 184 189 198
200 255 203 182 196 202 205 210 203 202 208 207 212 228 236 236 230 219 185 162 207 207 204 219 224 220 217 205 199 214 218 221 227 226 220 215 210 203 219 245 236 182 168 174 229 187 163 237 239 224 239 246 244 247 245 241 247 251 256 248 217 193 204 212 225 231 226 234 247 256 263 262 263 266 267 269 269 257 250 224 186 190 182 183 191 191 197 202
201 225 191 187 217 215 213 211 195 198 208 207 215 227 230 235 235 223 170 178 209 208 204 221 230 222 213 210 211 223 224 220 224 225 206 201 211 207 215 224 179 121 193 185 203 231 202 235 242 205 241 254 249 244 241 246 250 255 262 258 232 210 222 227 231 234 233 240 248 254 259 263 266 266 266 273 273 249 236 214 197 195 187 191 196 196 202 205
212 211 168 171 234 213 212 207 186 199 210 201 215 227 227 234 233 225 208 208 214 212 201 217 231 230 213 213 220 229 232 227 230 234 213 198 209 209 214 209 161 150 196 187 169 196 197 228 282 120 230 255 254 211 161 54 13 274 264 260 243 224 231 237 233 228 227 236 246 253 254 257 263 267 268 268 253 228 228 222 209 201 195 195 198 201 205 204
213 210 174 202 236 200 193 202 186 201 213 204 215 224 225 233 231 220 226 227 221 222 212 210 224 229 218 221 225 230 236 236 238 242 226 203 221 228 222 197 176 173 178 174 178 179 172 197 205 166 227 255 265 98 100 61 12 268 258 253 240 226 230 241 246 238 230 228 235 247 247 248 256 264 269 265 243 225 228 221 205 204 203 200 202 205 204 201
Height
835 834 833 832 830 829 828 826 825 823 822 820 819 817 816 815 813 811 809 808 807 805 804 803 803 803 803 802 801 801 801 800 800 799 799 802 802 801 801 800 799 798 797 796 795 794 793 793 792 791 790 792 796 797 796 797 799 800 806 811 816 823 821 816 818 818 815 812 812 814 815 816 820 825 826 826 830 833 833 835 835 834 833 833 833 834 836 836
835 834 833 832 830 829 828 826 825 823 822 820 819 817 816 815 813 812 810 808 807 806 805 803 803 803 803 803 802 801 801 800 799 800 801 802 801 801 801 800 799 798 797 796 795 795 794 794 793 792 792 795 798 797 797 799 799 803 811 813 815 820 816 812 812 812 813 810 809 814 817 815 815 821 823 823 831 834 831 836 839 836 836 835 835 835 836 836
834 834 833 831 830 829 828 826 825 823 822 820 819 817 816 814 813 812 810 809 807 806 805 803 803 802 803 803 802 802 801 800 801 802 802 802 801 801 800 799 799 798 797 796 796 795 795 795 794 794 795 797 800 799 798 799 801 806 809 810 814 814 812 812 811 810 810 809 808 813 818 816 816 820 821 822 831 833 829 833 836 836 836 835 836 836 836 836
834 833 832 831 830 829 828 826 825 823 822 820 819 817 816 814 813 811 810 809 807 806 804 803 803 802 803 802 803 802 800 803 804 802 802 801 801 801 800 799 799 798 798 797 796 796 796 795 794 795 796 799 802 801 802 802 803 808 807 807 810 812 812 810 809 809 809 810 808 812 817 817 819 821 820 822 827 829 827 825 824 826 831 833 835 836 836 836
834 833 832 831 830 829 828 826 825 823 822 820 819 817 816 814 813 811 810 809 807 806 804 804 802 802 802 802 803 801 802 809 807 801 802 802 801 801 800 799 798 798 798 797 796 796 795 796 795 797 799 801 803 802 805 806 805 807 808 808 809 812 812 807 809 810 810 812 810 813 815 815 820 820 821 820 816 817 820 819 820 822 826 830 832 834 835 834
834 833 832 831 830 829 827 826 825 823 821 820 819 817 815 814 813 811 810 808 807 806 804 804 802 802 802 802 804 802 806 812 805 801 802 801 801 801 799 799 798 798 798 797 796 796 797 797 797 802 805 806 809 807 807 808 806 807 810 812 811 811 809 807 809 809 811 811 809 811 812 816 820 818 821 820 813 817 819 817 820 824 827 829 831 832 832 832
834 833 832 831 830 828 827 826 824 822 821 820 818 817 815 814 812 811 809 808 807 805 804 804 803 802 802 803 803 803 808 808 802 802 802 801 801 801 800 799 799 798 798 797 797 797 800 800 801 807 808 808 812 810 808 808 806 807 809 812 812 812 809 808 808 809 811 809 808 811 811 815 816 815 821 820 818 823 821 819 821 824 827 829 830 831 830 829
833 833 832 831 830 828 827 825 824 822 821 819 818 816 815 813 812 810 809 808 806 805 804 804 803 803 803 803 804 807 809 805 802 802 802 801 801 800 800 800 799 799 798 798 799 799 802 804 806 810 809 810 813 811 810 808 807 809 810 811 813 813 810 810 809 810 810 810 812 812 811 815 816 816 818 817 820 824 821 820 823 825 827 829 829 829 829 829
833 832 831 831 829 828 827 825 824 822 820 819 817 816 814 813 811 810 808 807 806 805 804 804 804 803 804 804 806 810 807 802 802 802 802 802 801 801 800 800 799 799 798 799 800 799 802 806 808 809 809 812 813 812 811 809 810 811 811 810 811 811 811 812 810 809 810 811 813 811 812 818 819 819 815 815 820 822 822 822 823 825 826 827 828 828 828 828
834 832 831 830 829 828 827 825 824 822 821 819 817 815 814 812 811 809 808 807 806 805 804 804 803 803 804 803 808 812 805 801 802 802 802 802 801 801 800 800 800 799 799 800 800 800 802 805 807 807 808 811 812 813 813 811 811 813 812 811 810 811 812 813 810 809 811 812 812 810 812 818 821 818 808 813 822 821 822 823 824 826 825 827 827 827 828 828
834 833 832 830 829 828 826 825 823 822 820 818 817 815 813 812 810 808 807 806 805 804 804 803 803 804 804 804 810 811 803 801 803 801 802 802 801 801 801 801 800 800 800 801 802 802 802 804 805 807 808 810 811 812 813 811 811 812 811 808 809 810 810 812 810 810 811 810 811 810 812 818 821 814 802 809 820 820 822 823 825 826 826 827 827 827 828 827
833 832 831 830 829 827 826 825 823 821 820 818 816 814 813 811 809 808 806 806 805 804 804 803 804 804 804 806 808 806 801 802 802 802 802 801 801 801 801 801 800 801 800 801 803 802 803 804 804 806 808 810 811 812 811 811 812 812 812 810 808 807 807 809 809 810 811 809 810 811 811 814 813 806 803 812 818 821 823 823 825 826 826 827 827 828 827 827
833 832 831 830 829 827 826 824 822 821 819 817 815 813 812 810 809 807 805 805 804 804 803 803 803 803 805 807 805 802 802 802 802 802 802 801 802 801 802 802 801 801 801 802 803 803 804 803 804 807 809 810 812 812 811 812 812 811 815 816 813 811 808 810 811 811 811 810 810 813 811 803 799 800 807 816 817 820 823 823 824 825 826 827 827 827 826 826
832 831 830 829 828 827 825 824 822 820 818 817 815 813 811 809 808 806 805 805 803 803 803 803 803 803 806 806 802 801 802 802 802 802 802 801 801 802 802 802 801 801 802 802 803 804 804 804 805 806 809 811 811 811 812 814 814 814 817 820 825 821 810 810 814 811 810 812 811 814 814 800 791 797 810 817 816 818 819 820 823 823 825 826 826 826 825 825
831 830 829 828 827 826 825 823 821 820 818 816 814 812 810 808 806 804 804 803 803 803 802 803 803 803 807 805 801 802 802 801 802 802 802 802 801 802 802 802 802 802 802 803 804 805 805 805 805 808 810 811 812 812 813 815 817 820 817 818 829 827 815 810 812 812 809 812 813 814 814 803 792 797 809 817 817 817 816 817 820 821 823 824 824 824 823 824
830 829 828 827 826 825 824 822 821 819 817 815 813 811 809 807 805 804 803 802 803 802 802 803 803 804 808 805 801 801 801 801 802 801 802 802 801 802 802 802 802 803 803 804 804 805 805 805 809 813 812 811 814 814 814 817 818 824 823 818 822 825 823 816 810 813 811 811 813 813 811 802 794 800 813 817 816 816 815 816 818 818 820 821 821 822 822 822
829 828 827 826 825 824 823 822 820 818 816 815 813 810 808 806 804 802 802 802 802 801 802 802 802 804 806 803 802 801 800 800 801 801 801 802 802 802 802 802 803 803 804 804 805 806 805 808 812 814 814 818 820 815 817 821 817 822 827 823 822 824 826 820 810 812 815 813 812 813 812 802 792 800 814 816 815 816 814 811 813 815 818 818 819 820 819 819
828 827 827 826 824 823 822 821 820 818 816 814 812 809 806 804 803 802 802 802 802 802 803 802 803 808 806 801 801 800 799 799 800 801 801 801 802 802 802 802 803 804 804 805 806 807 807 810 814 814 816 820 819 816 819 822 818 820 825 823 824 826 825 823 815 812 813 813 813 814 813 802 792 795 807 813 814 814 810 808 809 812 815 816 817 818 817 817
826 826 825 825 824 823 822 821 819 818 816 814 812 809 804 803 802 801 801 802 803 804 805 803 802 806 804 798 799 799 798 800 800 800 800 801 802 802 802 802 804 803 805 807 806 808 809 810 814 815 815 815 814 815 815 817 818 820 823 824 825 825 822 819 815 813 814 814 813 814 811 801 792 789 796 807 812 811 808 807 808 810 813 814 814 814 815 815
825 825 824 824 823 822 821 820 819 818 816 814 812 808 806 807 807 805 803 801 801 802 802 801 800 799 798 797 798 798 799 800 799 800 800 801 801 802 802 803 804 804 807 808 808 812 814 812 814 814 813 812 812 815 815 818 821 822 824 826 826 827 822 812 811 815 817 815 809 807 809 802 794 788 787 798 808 810 809 806 806 807 808 809 810 810 811 811
824 824 823 822 822 822 821 820 819 818 817 815 813 811 812 815 815 813 810 803 798 799 799 799 799 798 797 798 798 798 799 800 799 799 799 800 801 803 804 804 806 807 811 814 813 815 816 813 810 808 810 813 813 817 819 821 823 823 825 825 826 830 823 811 812 817 817 817 808 804 808 802 794 787 783 793 803 802 801 800 799 801 803 803 804 806 807 809
823 822 822 822 821 821 820 819 819 818 817 816 814 814 816 817 817 817 817 810 800 798 799 799 799 798 797 797 798 798 800 801 800 799 799 801 801 803 804 806 808 808 813 817 813 814 817 811 804 806 815 818 818 820 821 821 824 825 827 828 826 826 822 813 815 820 819 817 808 804 807 799 792 787 778 784 792 789 789 790 789 792 796 797 799 802 804 806
821 821 821 820 820 820 819 819 818 817 817 816 815 816 816 817 817 818 818 816 805 797 798 798 797 797 797 796 796 798 800 801 800 797 797 800 801 803 804 805 808 809 812 812 809 813 813 805 805 814 817 814 816 822 821 821 824 824 826 827 821 820 821 815 815 820 819 817 811 807 804 794 790 785 773 775 783 783 784 786 786 788 788 789 793 796 799 800
820 820 820 819 819 819 819 819 818 817 817 816 817 816 816 817 817 817 817 816 807 797 796 796 795 796 795 795 794 796 799 799 797 795 796 797 800 803 802 804 809 809 810 809 809 810 805 806 814 818 815 811 814 820 821 820 821 821 823 822 817 815 817 815 819 823 817 815 816 810 794 778 781 782 770 773 784 783 784 785 785 786 785 787 791 793 795 796
819 819 818 818 819 817 818 818 817 818 817 817 817 816 817 817 817 818 817 816 810 799 795 795 794 794 792 793 794 795 797 797 795 795 795 796 798 801 802 805 806 806 809 813 814 809 804 813 819 814 814 816 815 817 819 819 820 819 814 814 812 810 813 817 822 824 816 813 818 817 797 772 773 781 772 772 780 779 782 785 780 780 784 787 788 789 793 795
818 818 818 818 817 816 818 817 817 818 816 817 818 817 818 817 817 818 817 822 815 797 792 793 793 791 790 792 795 795 797 795 794 794 795 796 796 797 801 805 806 805 809 813 813 807 808 817 818 812 814 817 817 818 819 819 822 820 813 813 815 814 817 820 822 822 816 815 820 824 817 790 770 770 766 766 770 771 777 781 777 778 781 782 783 784 789 792
818 818 817 818 817 817 817 817 818 818 816 818 817 818 818 816 819 817 817 829 817 789 788 794 793 790 790 793 794 794 795 794 794 795 795 796 796 796 799 804 806 806 809 812 809 805 808 813 816 814 814 818 817 815 815 819 819 816 816 818 816 815 818 820 824 824 821 824 824 821 825 810 780 767 767 766 767 766 768 770 771 776 777 775 778 781 785 788
817 817 817 817 817 817 817 817 818 817 818 818 817 818 817 817 820 816 823 834 810 781 784 791 790 789 790 794 795 794 795 793 794 796 796 796 797 797 799 801 802 802 806 809 804 803 806 805 807 810 813 816 812 807 811 815 812 812 821 823 819 819 821 823 826 826 829 831 821 815 825 818 783 766 776 781 774 767 761 756 756 764 770 771 774 779 782 785
816 816 816 817 816 816 817 817 817 817 818 818 818 818 817 819 819 817 832 832 798 778 784 787 789 791 792 795 796 796 797 795 795 796 796 797 796 798 801 803 802 802 806 808 801 801 807 808 807 807 808 807 805 810 816 812 808 815 824 823 822 825 826 830 829 825 833 828 809 808 820 814 776 751 769 783 773 763 756 751 749 753 761 767 772 776 779 782
815 815 816 816 815 816 816 816 816 816 817 818 818 818 818 820 820 828 842 825 791 785 790 788 790 793 794 797 797 798 798 796 797 797 798 798 798 799 803 805 805 804 808 810 805 805 811 815 815 808 806 805 807 820 826 820 817 820 821 817 818 824 828 836 836 830 828 812 796 800 808 809 784 752 755 763 754 749 744 742 745 748 756 764 768 772 775 779
813 814 815 815 815 815 815 816 816 815 817 817 817 819 819 821 827 836 832 806 788 791 790 789 795 794 795 796 795 798 799 796 797 798 798 800 800 801 804 803 805 808 812 810 807 811 813 812 811 807 809 812 809 817 825 827 827 821 817 815 814 817 822 828 831 832 824 799 791 804 809 811 792 757 749 750 745 747 744 739 738 740 752 762 765 769 774 777
811 812 813 814 814 814 814 815 814 815 816 816 818 819 820 827 832 828 813 794 787 789 785 789 796 795 797 798 794 797 799 796 796 797 798 802 802 801 801 798 799 804 807 807 806 808 806 806 809 809 811 811 805 810 821 824 824 820 817 818 819 822 824 820 819 821 814 797 799 811 811 802 776 749 747 748 742 744 745 744 741 741 751 759 764 768 772 777
809 810 811 812 812 813 814 813 814 815 815 816 819 818 824 833 825 812 803 791 784 786 786 789 795 796 797 796 793 797 798 795 795 796 797 802 804 801 798 798 799 796 797 808 810 803 798 801 809 807 804 805 802 804 809 811 816 819 815 813 816 825 830 822 815 812 802 793 802 813 807 786 756 738 740 739 735 741 747 752 752 749 752 755 760 767 771 776
807 808 809 810 811 812 812 813 814 814 815 816 817 821 830 831 814 803 800 790 785 790 791 792 797 798 796 793 792 794 794 791 794 796 797 802 805 800 795 798 803 797 797 808 809 804 801 795 797 800 798 801 800 798 799 802 813 819 815 812 810 814 818 814 807 803 796 790 796 808 800 770 742 733 738 741 744 752 757 760 759 755 753 755 760 767 771 774
805 806 807 807 809 810 810 812 813 814 816 815 817 824 824 813 803 800 795 789 788 790 792 796 797 796 796 796 795 793 788 787 793 797 797 799 799 795 789 789 796 797 797 803 803 808 810 795 793 804 805 803 802 803 805 800 806 820 822 815 809 804 804 807 807 807 811 807 797 795 781 755 739 736 742 752 753 755 760 760 758 755 755 759 762 766 769 771
803 804 804 804 805 807 809 810 811 814 814 814 820 819 804 792 792 793 786 782 783 785 791 797 795 795 797 794 792 792 788 788 794 796 796 799 796 793 789 781 786 790 787 792 796 800 802 794 799 809 806 808 810 807 808 799 797 815 819 808 810 812 804 804 810 816 826 817 791 778 765 746 737 734 738 748 747 745 753 755 755 757 759 761 762 764 767 768
801 802 802 801 802 805 806 808 811 813 813 816 815 802 788 783 783 781 779 780 781 782 787 791 789 789 790 788 786 787 788 790 795 793 793 796 788 784 785 778 779 782 774 777 784 786 788 787 798 808 799 807 819 810 808 807 803 808 808 802 810 815 808 810 816 819 826 820 791 774 766 748 737 735 737 744 742 734 740 750 757 761 763 762 760 762 765 766
799 800 799 797 799 802 803 806 809 810 813 816 808 791 783 781 777 774 775 777 779 780 783 786 782 780 783 784 782 785 788 788 792 792 789 789 779 772 776 772 774 778 772 772 777 782 787 784 796 816 809 807 816 807 801 808 810 806 805 806 808 805 807 816 820 814 817 819 794 773 766 744 726 727 725 726 729 722 727 747 758 757 758 759 759 761 765 766
798 800 796 791 794 798 801 804 807 810 813 811 802 791 783 778 775 773 771 772 774 777 780 779 776 777 781 782 779 782 787 785 789 790 783 782 777 768 768 764 767 777 776 775 776 780 788 783 788 814 820 810 809 804 796 799 810 812 809 810 808 804 805 809 814 808 804 808 793 776 769 736 707 712 712 710 716 714 718 738 750 750 750 754 756 758 762 763
796 798 792 786 789 794 798 804 806 809 806 795 787 784 779 775 774 770 767 769 770 770 774 774 774 775 777 780 780 778 781 783 786 786 779 776 772 766 765 761 763 778 781 780 779 780 788 787 785 806 822 812 797 794 788 785 795 803 804 808 807 806 809 808 811 805 797 801 796 790 780 732 697 706 707 704 711 710 712 726 738 745 745 747 752 754 757 759
794 795 786 782 786 790 797 804 802 799 795 784 777 777 775 772 770 767 766 768 767 764 766 768 769 769 769 775 778 775 777 780 782 782 776 772 768 760 758 755 758 772 780 781 780 778 782 785 786 798 809 798 783 786 790 784 784 787 789 793 792 796 803 804 804 799 798 798 787 791 785 727 694 708 706 702 709 707 712 723 729 737 739 742 748 749 752 755
789 787 780 780 785 786 793 797 791 788 786 777 772 771 770 767 766 766 765 766 767 765 765 764 762 764 764 764 767 768 770 773 777 778 771 766 762 753 749 752 756 761 767 772 775 774 777 783 785 786 788 787 787 796 803 797 792 790 788 785 785 789 791 790 789 789 795 793 780 796 788 719 690 712 709 705 710 710 721 727 724 729 734 739 745 746 750 752
779 778 778 780 782 783 790 791 786 785 779 770 768 768 766 765 765 764 763 764 765 763 763 760 755 758 760 758 760 763 763 764 766 768 765 760 754 748 747 752 756 758 761 765 770 774 776 779 780 778 778 784 792 798 800 800 797 791 786 786 786 780 776 777 780 780 786 782 780 800 778 708 694 721 718 714 720 720 727 727 721 727 732 737 743 745 748 751
770 773 777 780 781 782 783 778 774 777 774 771 771 768 765 763 761 759 758 757 756 754 754 752 750 752 754 754 755 756 758 760 757 756 756 751 748 747 747 750 753 753 753 753 756 763 769 771 776 779 778 779 784 788 791 795 797 788 778 782 783 774 774 780 783 787 783 769 771 785 754 699 698 722 720 717 719 719 724 726 725 728 731 736 741 743 747 750
768 771 774 777 778 776 770 760 758 763 767 770 770 767 766 763 754 751 751 748 746 746 746 745 747 748 748 750 752 752 754 752 748 748 747 745 747 749 751 752 750 746 745 747 747 750 756 761 765 770 775 774 767 764 767 775 785 785 777 777 778 776 778 775 776 785 775 757 762 765 733 699 697 709 712 710 710 714 720 724 727 729 730 735 739 740 745 747
765 766 769 774 774 769 762 755 756 757 757 764 769 765 765 760 747 742 746 745 742 744 745 742 742 744 745 748 751 750 749 747 744 743 742 741 741 746 754 756 751 749 749 749 750 749 752 754 752 749 752 752 743 738 746 756 764 768 767 768 770 771 773 772 773 770 754 750 755 739 719 711 697 693 705 705 701 709 714 716 722 727 729 733 735 737 740 742
755 751 754 761 765 766 761 756 756 754 751 757 760 753 749 749 745 742 742 740 739 742 744 739 739 742 741 742 745 743 742 744 744 739 736 737 737 746 759 760 756 755 754 752 751 749 750 749 744 740 738 733 727 728 738 745 744 745 750 757 762 766 772 775 766 746 738 752 746 713 712 720 694 681 697 697 692 702 708 710 715 720 725 728 731 735 738 740
742 736 736 740 743 748 750 744 745 751 752 751 748 740 737 739 742 740 736 736 738 740 741 738 734 732 729 731 737 739 739 741 740 734 731 735 737 742 750 756 759 758 755 756 754 749 747 741 734 737 738 732 727 728 733 738 738 739 740 742 751 763 770 765 749 732 735 745 725 698 707 712 685 678 689 687 686 694 696 702 709 713 720 726 729 733 735 736
734 731 730 731 726 725 729 729 735 746 749 747 744 739 734 729 726 727 731 737 739 735 734 730 722 719 723 728 732 734 733 730 726 723 725 730 732 734 738 742 751 760 757 754 755 753 746 735 728 734 737 733 732 731 733 738 740 740 736 731 739 753 757 749 738 732 734 730 711 701 709 698 674 675 682 678 683 691 691 698 707 711 717 722 725 728 729 729
723 722 723 727 724 720 721 725 733 740 740 742 743 734 725 720 716 719 726 729 730 729 727 722 714 714 722 727 728 723 712 706 708 711 716 723 727 731 731 725 735 757 760 752 753 755 746 734 730 735 736 731 728 730 738 744 746 744 733 723 729 739 743 741 737 734 736 730 715 712 715 696 670 670 679 677 682 689 690 694 702 707 713 717 719 723 722 722
712 713 716 723 723 720 721 723 728 733 733 735 733 722 717 716 712 715 720 717 714 716 718 717 714 717 722 725 722 710 698 698 704 704 707 713 715 717 719 715 721 741 753 752 749 748 748 742 735 739 740 729 727 739 748 751 757 754 733 717 723 731 729 724 722 724 726 724 719 720 719 696 669 667 675 677 681 686 686 688 696 703 708 711 713 715 716 716
710 712 713 718 717 714 718 721 724 725 721 719 716 711 711 712 710 716 719 712 706 707 710 712 714 717 721 718 709 698 694 699 703 702 705 709 708 707 710 714 715 722 738 749 745 741 744 739 733 741 740 730 740 756 754 755 761 743 709 695 705 718 718 712 709 709 708 711 715 712 695 675 665 668 673 674 677 682 682 683 690 696 702 706 707 707 709 712